Flag for Liberia Weather past 2 weeks in Kakata, Liberia

Now
75 °F

Passing clouds.


Feels Like: 74 °F
Forecast: 69 / 98 °F
Wind: No wind

Location: Roberts Field

Current Time: Feb 28, 2015 at 1:39:21 AM

Latest Report: Feb 28, 2015 at 1:00 AM


Visibility: N/A

Pressure: 29.86 "Hg

Humidity: 94%

Dew point: 73 °F

Location of KakataLocation

Historic Weather in Kakata — Graph

°F

Kakata temperature yesterday

Maximum temperature yesterday: 91 °F (at 1:30 PM)
Minimum temperature yesterday: 72 °F (at 6:35 AM)
Average temperature yesterday: 81 °F

Past Weeks' High & Low Weather Summary

 TemperatureHumidityPressure
High91 °F (Feb 17, 1:30 PM)100% (Feb 19, 4:00 AM)29.98 "Hg (Feb 19, 4:00 AM)
Low72 °F (Feb 14, 8:00 AM)52% (Feb 13, 4:30 PM)29.74 "Hg (Feb 18, 3:30 PM)
Average80 °F82%29.85 "Hg
* Reported Feb 13 12:30 AM — Feb 28 12:30 AM, Kakata, Weather by CustomWeather, © 2015

Note: Actual official high and low records may vary slightly from our data, if they occured in-between our weather recording intervals... More about our weather records

Advertising

Kakata weather history for previous 24 hours

 ConditionsComfort  
Time TempWeatherWind HumidityBarometerVisibility
12:30 AM
Sat, Feb 28
75 °FPassing clouds.No wind94%29.86 "HgN/A
12:00 AM75 °FPassing clouds.No wind94%29.89 "HgN/A
11:00 PM
Fri, Feb 27
75 °FPassing clouds.No wind94%29.86 "HgN/A
10:30 PM77 °FPassing clouds.No wind94%29.86 "HgN/A
10:00 PM77 °FPassing clouds.No wind94%29.86 "HgN/A
9:00 PM77 °FPassing clouds.No wind94%29.83 "HgN/A
8:00 PM77 °FPassing clouds.No wind94%29.83 "HgN/A
7:30 PM79 °FScattered clouds.No wind84%29.80 "HgN/A
7:00 PM81 °FScattered clouds.3 mph84%29.80 "HgN/A
6:30 PM82 °FPassing clouds.No wind79%29.77 "HgN/A
6:00 PM82 °FPartly sunny.7 mph79%29.77 "HgN/A
5:30 PM84 °FPassing clouds.10 mph70%29.77 "HgN/A
5:00 PM86 °FPassing clouds.13 mph66%29.77 "HgN/A
4:30 PM88 °FPassing clouds.9 mph66%29.74 "HgN/A
4:00 PM88 °FPassing clouds.13 mph66%29.77 "HgN/A
3:30 PM90 °FScattered clouds.9 mph63%29.77 "HgN/A
3:00 PM90 °FScattered clouds.10 mph67%29.77 "HgN/A
2:30 PM90 °FPartly sunny.8 mph67%29.77 "HgN/A
2:00 PM90 °FPartly sunny.3 mph63%29.80 "HgN/A
1:30 PM91 °FPartly sunny.3 mph56%29.80 "HgN/A
1:00 PM90 °FPartly sunny.5 mph59%29.80 "HgN/A
12:30 PM90 °FPartly sunny.3 mph59%29.83 "HgN/A
12:00 PM88 °FPartly sunny.6 mph66%29.86 "HgN/A
8:30 AM77 °FPartly sunny.3 mph94%29.86 "Hg5 mi
8:00 AM75 °FPartly sunny.No wind94%29.86 "Hg4 mi
7:30 AM75 °FPassing clouds.No wind94%29.83 "Hg4 mi
7:00 AM73 °FFog.No wind94%29.83 "Hg2 mi
6:35 AM72 °FFog.No wind94%29.83 "Hg2 mi
6:00 AM73 °FFog.No wind94%29.83 "Hg1 mi
5:30 AM75 °FFog.No wind94%29.80 "Hg2 mi
2:00 AM75 °FPassing clouds.No wind94%29.80 "Hg4 mi
1:30 AM77 °FPassing clouds.No wind94%29.83 "Hg4 mi
1:00 AM77 °FPassing clouds.No wind94%29.83 "Hg4 mi
Weather by CustomWeather, © 2015

See weather overviewHow to use our weather pages